Regional Weather Roundup
Issued by NWS Kansas City/Pleasant Hill, MO

Home | Current Version | Previous Version | Graphics & Text | Print | Product List | Glossary Off
Versions: 1 2 3 4 5 6 7 8 9 10 11 12 13 14 15 16 17 18 19 20 21 22 23 24 25 26 27 28 29 30 31 32 33 34 35 36 37 38 39 40 41 42 43 44 45 46 47 48 49 50

000
ASUS43 KEAX 271210
RWREAX

WEATHER ROUNDUP FOR EASTERN KANSAS AND NORTHWEST MISSOURI
NATIONAL WEATHER SERVICE KANSAS CITY/PLEASANT HILL MO
700 AM CDT TUE JUN 27 2017

KSZ040-057-103>105-MOZ028-029-037-043-271300-
...KANSAS CITY METROPOLITAN AREA...

CITY           SKY/WX    TMP DP  RH WIND       PRES   REMARKS
K.C. INTL      SUNNY     58  56  93 SE5       30.12S
6HR MIN TEMP:  56; 6HR MAX TEMP:  61;

K.C. DOWNTOWN  SUNNY     60  59  96 E6        30.12S
6HR MIN TEMP:  57; 6HR MAX TEMP:  61;

LEES SUMMIT    SUNNY     59  59 100 E5        30.13S
6HR MIN TEMP:  56; 6HR MAX TEMP:  60;

OLATHE - IXD   MOSUNNY   58  55  90 SE5       30.12S
6HR MIN TEMP:  57; 6HR MAX TEMP:  59;

OLATHE - OJC   SUNNY     58  58 100 SE6       30.12S
6HR MIN TEMP:  56; 6HR MAX TEMP:  59;

LAWRENCE       SUNNY     57  57 100 E5        30.11F

$$

MOZ001>008-011>017-020>025-030>033-038>040-044>046-053-054-271300-
...NORTHERN AND CENTRAL MISSOURI...

CITY           SKY/WX    TMP DP  RH WIND       PRES   REMARKS
ST. JOSEPH     FOG       55  55 100 CALM      30.12F VSB 1
6HR MIN TEMP:  52; 6HR MAX TEMP:  56;

MOSBY          SUNNY     52  52 100 CALM      30.12F
WARRENSBURG    FOG       52  52 100 CALM      30.13S VSB 1/2
WHITEMAN AFB   NOT AVBL
CLINTON        SUNNY     57  57 100 SE3       30.13S
SEDALIA        SUNNY     58  58 100 E3        30.15R
6HR MIN TEMP:  55; 6HR MAX TEMP:  60;

WARSAW         NOT AVBL
CHILLICOTHE      N/A     55  55 100 CALM      30.15S
6HR MIN TEMP:  53; 6HR MAX TEMP:  57;

KIRKSVILLE     SUNNY     57  51  80 E5        30.16S
6HR MIN TEMP:  49; 6HR MAX TEMP:  57;


$$

MOZ041-047>049-056>058-063>065-088>090-097-271300-
...EASTERN AND SOUTHERN MISSOURI...

CITY           SKY/WX    TMP DP  RH WIND       PRES   REMARKS
ST. LOUIS INTL MOSUNNY   63  57  81 W3        30.16S
6HR MIN TEMP:  59; 6HR MAX TEMP:  63;

SPIRIT OF STL  FOG       57  57 100 CALM      30.15S VSB<1/4
COLUMBIA       SUNNY     55  55 100 CALM      30.16R
JEFFERSON CITY FOG       56  56 100 E3        30.15S VSB 1/4
ROLLA          SUNNY     58  57  97 E5        30.15S
OSAGE BEACH    SUNNY     56  56 100 SE5       30.16R
SPRINGFIELD    MOSUNNY   60  59  96 E6        30.13R
BRANSON        MOSUNNY   61  59  94 SE8       30.14S
JOPLIN         CLEAR     63  62  97 E5        30.11R
WEST PLAINS    PTSUNNY   61  59  93 E3        30.16S

$$

IAZ060-094-KSZ022-034>040-054-083-096-NEZ052-066-093-271300-
...KANSAS...SOUTHEAST NEBRASKA AND IOWA...

CITY           SKY/WX    TMP DP  RH WIND       PRES   REMARKS
TOPEKA         CLEAR     59  58  96 SE5       30.10F
6HR MIN TEMP:  57; 6HR MAX TEMP:  61;

MANHATTAN      CLEAR     60  58  92 E5        30.08F
EMPORIA        CLOUDY    60  60 100 E8        30.08F
CHANUTE        CLOUDY    63  62  97 E8        30.10R FOG
WICHITA        CLOUDY    65  64  97 SE9       30.05S
OMAHA          MOSUNNY   57  49  74 SE5       30.11F
LINCOLN        CLEAR     57  56  96 S3        30.11S FOG
FALLS CITY     MOSUNNY   53  53 100 CALM      30.11S FOG
LAMONI         SUNNY     56  47  71 SE5       30.15R
DES MOINES     MOSUNNY   55  47  74 S3        30.15R

$$




USA.gov is the U.S. government's official web portal to all federal, state and local government web resources and services.